Voltar ao catálogo

CZ-4 DEB

AtivoSSO
NORAD 26241·DEBRIS·🇨🇳 China

Lançado Oct 14, 1999 de Taiyuan Satellite Launch Center

Loading…

Próximas Passagens (próximas 24 horas)

TLE

AtualizadoSource: Space-Track

Época: Sep 14, 2026, 07:53 UTC

1 26241U 99057EF  26257.32862450  .00000161  00000-0  68983-4 0  9993
2 26241  98.8955 280.2118 0109166 129.0972 298.4252 14.34683277384468

Acompanhe CZ-4 DEB em tempo real com AllMySat

Download on the App Store